Current weather by "City, St" or "zip code"  
 
Advertise Here

Current Conditions: Ames, Ames Municipal Airport, IA

Fair and Breezy


38.0 F

Last Updated on Jan 20 2021, 12:53 pm CST
Humidity: 62%
Wind Speed: SW 21.9 mph
Barometer 29.81 in
Dewpoint: 26.1 F
Visibility: 10.00 mi
Precip: --
Heat Index: NA
Wind Chill: 27 F
Current conditions at:

Ames, Ames Municipal Airport, IA (KAMW)

Lat: 41.99056 Lon: 93.61889

Local Radar Image active severe weather and emergency alerts image image weather storm and storm spotter reports image weather observation monitoring service image
Local
Radar
Active
Alerts
Storm Reports Obs
Monitoring

Sign-up For Email & Text Message Weather Alert Notification Services


Advertise Here

Observation History for Ames, Ames Municipal Airport, IA


Time Wind
(mph)
Vis
(mi)
Weather Precip (in) Temperature (F) Relative
Humidity
Wind
Chill
(F)
Heat
Index
(F)
Pressure
Air Dwpt altimeter
(in)
sea level
(mb)
Rmks
12:53 pm CST SW 21.9 10.00 Fair and Breezy -- 38.0 26.1 62% 27 NA 29.81 1010.6
11:53 am CST SW 19.6 10.00 Fair -- 37.0 25.0 62% 27 NA 29.86 1012.4
10:53 am CST S 13.8 G 24.2 10.00 Fair -- 34.0 21.9 61% 25 NA 29.93 1014.7
9:53 am CST S 15.0 10.00 Fair -- 27.0 19.0 72% 15 NA 29.99 1016.7
8:53 am CST SE 6.9 10.00 Fair -- 16.0 12.0 84% 6 NA 30.03 1018.4
7:53 am CST SE 6.9 10.00 Fair -- 11.0 7.0 84% NA NA 30.09 1020.5
6:53 am CST SE 5.8 10.00 Fair -- 9.0 5.0 84% -1 NA 30.14 1022.3
5:53 am CST SE 4.6 10.00 Fair -- 8.0 3.9 83% -1 NA 30.17 1023.1
4:53 am CST SE 6.9 10.00 Fair -- 7.0 3.0 84% -5 NA 30.19 1023.7
3:53 am CST SE 3.5 10.00 Fair -- 7.0 3.0 84% NA NA 30.23 1025.0
2:53 am CST S 5.8 10.00 Fair -- 9.0 3.9 80% -1 NA 30.27 1026.2
1:53 am CST S 4.6 10.00 Fair -- 6.0 1.9 83% -3 NA 30.27 1026.4
12:53 am CST SW 5.8 10.00 Fair -- 7.0 3.0 84% -3 NA 30.31 1027.6
11:53 pm CST N 0.0 10.00 Fair -- 8.0 3.0 80% NA NA 30.33 1028.3
10:53 pm CST NW 5.8 10.00 Fair -- 11.0 5.0 77% 1 NA 30.35 1029.0
9:53 pm CST W 6.9 10.00 Fair -- 13.0 6.1 74% 3 NA 30.34 1028.8
8:53 pm CST NW 10.4 10.00 Fair -- 16.0 7.0 67% 4 NA 30.35 1029.0
7:53 pm CST NW 12.7 10.00 Fair -- 18.0 9.0 68% 5 NA 30.37 1029.4
6:53 pm CST NW 12.7 10.00 A Few Clouds -- 20.0 10.9 68% 7 NA 30.35 1028.8
5:53 pm CST NW 18.4 G 25.3 10.00 A Few Clouds -- 21.0 12.9 71% 6 NA 30.32 1027.9
4:53 pm CST NW 21.9 G 32.2 10.00 Partly Cloudy and Breezy -- 24.0 15.1 68% 9 NA 30.30 1027.2
3:53 pm CST NW 26.5 G 38.0 10.00 Overcast and Windy -- 28.0 17.1 63% 13 NA 30.26 1025.7
2:53 pm CST NW 27.6 G 41.4 10.00 Overcast and Windy Trace 32.0 21.9 66% 18 NA 30.21 1024.0
1:53 pm CST NW 25.3 G 36.8 6.00 Light Snow and Breezy -- 36.0 27.0 70% 24 NA 30.17 1022.2

Regional Weather Observation


Webster City Municipal Airport, IA (KEBS)

Fair and Windy
39.0 F

Ames, Ames Municipal Airport, IA (KAMW)

Fair and Breezy
38.0 F

Iowa Falls Municipal Airport, IA (KIFA)

Fair and Breezy
37.0 F

Clarion, IA (KCAV)

Fair
37.0 F

Fort Dodge, IA (KFOD)

Fair and Breezy
38.0 F

Hampton Municipal Airport, IA (KHPT)

Fair and Breezy
36.0 F